Flag for Tunisia Weather past 2 weeks in Tunis, Tunisia

Now
70 °F

Passing clouds.


Feels Like: 70 °F
Forecast: 58 / 80 °F
Wind: 10 mph from West

Location: Tunis-Carthage

Current Time: May 24, 2015 at 9:27:14 AM

Latest Report: May 24, 2015 at 9:00 AM


Visibility: N/A

Pressure: 30.01 "Hg

Humidity: 46%

Dew point: 48 °F

Location of TunisLocation

Historic Weather in Tunis — Graph

°F

Tunis temperature yesterday

Maximum temperature yesterday: 75 °F (at 2:30 PM)
Minimum temperature yesterday: 55 °F (at 5:00 AM)
Average temperature yesterday: 66 °F

Past Weeks' High & Low Weather Summary

 TemperatureHumidityPressure
High102 °F (May 15, 1:30 PM)100% (May 13, 3:30 AM)30.27 "Hg (May 13, 3:30 AM)
Low55 °F (May 13, 3:30 AM)11% (May 14, 4:00 PM)29.74 "Hg (May 15, 1:30 PM)
Average71 °F55%30.02 "Hg
* Reported May 9 8:00 AM — May 24 8:00 AM, Tunis, Weather by CustomWeather, © 2015

Note: Actual official high and low records may vary slightly from our data, if they occured in-between our weather recording intervals... More about our weather records

Advertising

Tunis weather history for previous 24 hours

 ConditionsComfort  
Time TempWeatherWind HumidityBarometerVisibility
8:00 AM
Sun, May 24
66 °FPassing clouds.8 mph49%30.01 "HgN/A
7:30 AM64 °FPassing clouds.8 mph52%30.01 "HgN/A
7:00 AM63 °FPassing clouds.9 mph52%30.01 "HgN/A
6:30 AM61 °FScattered clouds.9 mph55%30.01 "HgN/A
6:00 AM61 °FScattered clouds.9 mph55%30.01 "HgN/A
5:30 AM59 °FScattered clouds.8 mph55%30.01 "HgN/A
5:00 AM59 °FPassing clouds.8 mph55%29.98 "HgN/A
4:30 AM59 °FPassing clouds.8 mph59%29.98 "HgN/A
4:00 AM61 °FPassing clouds.8 mph55%29.98 "HgN/A
2:30 AM61 °FPassing clouds.7 mph55%30.01 "HgN/A
2:00 AM61 °FPassing clouds.7 mph55%30.01 "HgN/A
1:30 AM61 °FPassing clouds.7 mph55%30.01 "HgN/A
1:00 AM63 °FPassing clouds.5 mph52%30.01 "HgN/A
12:30 AM63 °FPassing clouds.6 mph52%30.04 "HgN/A
12:00 AM64 °FPassing clouds.5 mph46%30.04 "HgN/A
11:30 PM
Sat, May 23
64 °FPassing clouds.7 mph49%30.04 "HgN/A
11:00 PM64 °FPassing clouds.7 mph49%30.04 "HgN/A
10:30 PM64 °FPassing clouds.6 mph49%30.04 "HgN/A
10:00 PM64 °FPassing clouds.9 mph49%30.04 "HgN/A
9:30 PM64 °FPassing clouds.10 mph49%30.04 "HgN/A
9:00 PM66 °FPassing clouds.12 mph46%30.01 "HgN/A
8:30 PM66 °FPassing clouds.9 mph46%30.01 "HgN/A
8:00 PM66 °FPassing clouds.10 mph43%30.01 "HgN/A
7:30 PM68 °FPassing clouds.14 mph43%30.01 "HgN/A
7:00 PM70 °FScattered clouds.15 mph38%29.98 "HgN/A
6:30 PM70 °FScattered clouds.17 mph38%29.98 "HgN/A
6:00 PM72 °FScattered clouds.15 mph33%29.98 "HgN/A
5:30 PM73 °FScattered clouds.14 mph29%29.98 "HgN/A
5:00 PM73 °FScattered clouds.15 mph33%29.98 "HgN/A
4:30 PM75 °FScattered clouds.18 mph34%29.98 "HgN/A
4:00 PM75 °FScattered clouds.15 mph34%29.98 "HgN/A
3:30 PM75 °FScattered clouds.16 mph36%29.98 "HgN/A
3:00 PM73 °FScattered clouds.15 mph38%29.98 "HgN/A
2:30 PM75 °FScattered clouds.14 mph39%29.98 "HgN/A
2:00 PM73 °FScattered clouds.15 mph41%29.98 "HgN/A
1:30 PM73 °FScattered clouds.13 mph44%29.98 "HgN/A
1:00 PM73 °FScattered clouds.15 mph44%30.01 "HgN/A
12:00 PM70 °FPassing clouds.16 mph46%30.01 "HgN/A
11:30 AM70 °FPassing clouds.14 mph50%30.01 "HgN/A
11:00 AM72 °FPassing clouds.14 mph47%30.01 "HgN/A
10:30 AM68 °FPassing clouds.13 mph56%30.04 "HgN/A
10:00 AM68 °FPassing clouds.13 mph56%30.04 "HgN/A
9:30 AM66 °FPassing clouds.15 mph56%30.04 "HgN/A
9:00 AM66 °FPassing clouds.15 mph56%30.04 "HgN/A
Weather by CustomWeather, © 2015

See weather overviewHow to use our weather pages